Location: Lalanga
(4.5882°N, 32.9072°E)
Time: 16:26:35
(UTC+00:00)

USA 234 - Pass Details

Date: 24 January 2020
Orbit: 1100 x 1107 km, 123.0° (Epoch: 20 February)

Event Time Altitude Azimuth Distance (km) Brightness Sun altitude
Rises 17:04:15 0° 128° (SE) 3,909 5.8 -16.6°
Reaches altitude 10° 17:06:52 10° 121° (ESE) 2,950 5.1 -17.2°
Maximum altitude 17:12:55 42° 52° (NE) 1,523 3.5 -18.6°
Drops below altitude 10° 17:18:57 10° 344° (NNW) 2,945 5.5 -20.0°
Sets 17:21:34 0° 337° (NNW) 3,902 6.2 -20.7°
